Weather History for St. Francis, KS

Change the Weather History Date:

Wednesday, April 17, 2013

  Actual Average Record
Temperature  
Mean Temperature 32 °F -  
Max Temperature 38 °F 67 °F 55 °F (2014)
Min Temperature 27 °F 37 °F 27 °F (2013)
Degree Days  
Heating Degree Days 32    
Moisture  
Dew Point 29 °F    
Average Humidity 85    
Maximum Humidity 97    
Minimum Humidity 61    
Precipitation  
Precipitation 0.00 in - - ()
Sea Level Pressure  
Sea Level Pressure 29.96 in    
Wind  
Wind Speed 13 mph (NNE)    
Max Wind Speed 21 mph    
Max Gust Speed 29 mph    
Visibility 4 miles    
Events Fog , Rain , Snow    
Averages and records for this station are not official NWS values.
T = Trace of Precipitation, MM = Missing Value Source: NWS Daily Summary

Daily Weather History Graph

Daily Weather History Graph

Search for Another Location

Airport:

Trip Planner

Search our weather history database for the weather conditions in past years. The results will help you decide how hot, cold, wet, or windy it might be!

Date:

Astronomy

Apr. 17, 2013 Rise Set
Actual Time 7:06 AM CDT 8:27 PM CDT
Civil Twilight 6:38 AM CDT 8:55 PM CDT
Nautical Twilight 6:04 AM CDT 9:29 PM CDT
Astronomical Twilight 5:29 AM CDT 10:05 PM CDT
Moon 12:22 PM CDT (4/17) 2:06 AM CDT (4/17)
Length of Visible Light 14h 17m
Length of Day
13h 21m
Waxing Crescent, 42% of the Moon is Illuminated
Apr 17
Waxing Crescent
Apr 18
First Quarter
Apr 25
Full
May 2
Last Quarter
May 9
New

Hourly Weather History & Observations

Time (CDT) Temp. Windchill Dew Point Humidity Pressure Visibility Wind Dir Wind Speed Gust Speed Precip Events Conditions
12:35 AM 38.5 °F 29.9 °F 26.6 °F 62% 30.02 in 10.0 mi East 15.0 mph - N/A   Overcast
12:55 AM 38.3 °F 30.5 °F 26.6 °F 63% 30.02 in 10.0 mi East 12.7 mph - N/A   Overcast
1:15 AM 38.3 °F 30.9 °F 26.2 °F 62% 30.02 in 10.0 mi East 11.5 mph - N/A   Overcast
1:55 AM 37.9 °F 30.0 °F 25.7 °F 61% 30.01 in 10.0 mi East 12.7 mph - N/A   Overcast
2:15 AM 37.6 °F 29.6 °F 25.7 °F 62% 29.99 in 10.0 mi ENE 12.7 mph - N/A   Overcast
2:35 AM 37.6 °F 28.8 °F 26.1 °F 63% 29.99 in 10.0 mi ENE 15.0 mph - N/A   Overcast
2:55 AM 37.4 °F 28.9 °F 26.2 °F 64% 29.98 in 10.0 mi ENE 13.8 mph - N/A   Overcast
3:15 AM 37.4 °F 30.3 °F 26.4 °F 65% 29.98 in 10.0 mi ENE 10.4 mph - N/A   Overcast
3:35 AM 37.4 °F 30.8 °F 26.6 °F 65% 29.98 in 10.0 mi ENE 9.2 mph - N/A   Overcast
3:55 AM 37.6 °F 31.0 °F 26.6 °F 65% 29.98 in 10.0 mi ENE 9.2 mph - N/A   Overcast
4:15 AM 37.6 °F 30.5 °F 26.4 °F 64% 29.97 in 10.0 mi ENE 10.4 mph - N/A   Overcast
4:35 AM 37.6 °F 31.6 °F 27.0 °F 66% 29.98 in 10.0 mi NE 8.1 mph - N/A   Overcast
4:55 AM 37.4 °F 30.3 °F 27.5 °F 67% 29.96 in 10.0 mi NE 10.4 mph - N/A   Overcast
5:15 AM 37.4 °F 30.3 °F 27.9 °F 68% 29.96 in 10.0 mi NE 10.4 mph - N/A   Overcast
5:35 AM 37.4 °F 30.8 °F 28.2 °F 69% 29.96 in 10.0 mi NE 9.2 mph - N/A   Overcast
5:55 AM 37.4 °F 30.8 °F 28.2 °F 69% 29.97 in 10.0 mi NE 9.2 mph - N/A   Overcast
6:15 AM 37.2 °F 30.6 °F 28.4 °F 70% 29.96 in 10.0 mi NE 9.2 mph - N/A   Overcast
6:35 AM 37.0 °F 30.4 °F 28.9 °F 73% 29.96 in 10.0 mi ENE 9.2 mph - N/A   Overcast
6:55 AM 37.0 °F 30.4 °F 29.3 °F 74% 29.96 in 10.0 mi ENE 9.2 mph - N/A   Overcast
7:15 AM 37.0 °F 30.4 °F 29.8 °F 75% 29.97 in 10.0 mi NE 9.2 mph - N/A   Overcast
7:35 AM 34.9 °F 25.7 °F 30.7 °F 85% 29.97 in 5.0 mi NNE 13.8 mph - N/A   Overcast
7:55 AM 34.2 °F 24.8 °F 31.8 °F 91% 29.97 in 3.0 mi NE 13.8 mph - N/A   Overcast
8:15 AM 33.8 °F 24.3 °F 32.0 °F 93% 29.97 in 2.5 mi NE 13.8 mph - N/A   Overcast
8:35 AM 33.8 °F 23.9 °F 32.0 °F 93% 29.96 in 2.5 mi NE 15.0 mph - N/A   Overcast
8:55 AM 33.8 °F 23.9 °F 32.0 °F 93% 29.96 in 3.0 mi NE 15.0 mph - N/A   Overcast
9:15 AM 33.4 °F 23.5 °F 32.0 °F 94% 29.97 in 4.0 mi NE 15.0 mph - N/A   Overcast
9:35 AM 33.3 °F 23.7 °F 32.0 °F 95% 29.96 in 4.0 mi NE 13.8 mph - N/A   Overcast
9:55 AM 33.4 °F 23.9 °F 32.0 °F 94% 29.96 in 2.5 mi NNE 13.8 mph - N/A   Overcast
10:15 AM 33.4 °F 25.4 °F 32.0 °F 94% 29.96 in 1.8 mi NE 10.4 mph 13.8 mph N/A   Overcast
10:35 AM 33.6 °F 25.0 °F 32.0 °F 94% 29.95 in 1.0 mi NNE 11.5 mph - N/A   Overcast
10:55 AM 33.1 °F 23.0 °F 32.0 °F 96% 29.94 in 0.8 mi NNE 15.0 mph - N/A   Overcast
11:15 AM 32.9 °F 22.0 °F 31.8 °F 96% 29.95 in 0.8 mi NNE 17.3 mph 21.9 mph N/A   Overcast
11:35 AM 32.5 °F 22.3 °F 31.6 °F 96% 29.95 in 1.0 mi NNE 15.0 mph - N/A   Overcast
11:55 AM 32.2 °F 21.4 °F 31.5 °F 97% 29.95 in 1.2 mi NNE 16.1 mph - N/A   Overcast
12:15 PM 32.0 °F 21.6 °F 31.1 °F 96% 29.96 in 0.8 mi NNE 15.0 mph 19.6 mph N/A   Overcast
12:35 PM 32.0 °F 22.1 °F 30.9 °F 96% 29.95 in 0.5 mi NE 13.8 mph - N/A Fog Fog
12:55 PM 32.0 °F 21.6 °F 31.1 °F 96% 29.95 in 0.8 mi NNE 15.0 mph - N/A   Overcast
1:15 PM 32.0 °F 21.6 °F 31.1 °F 96% 29.94 in 1.8 mi NNE 15.0 mph - N/A   Overcast
1:35 PM 32.0 °F 23.6 °F 31.1 °F 96% 29.94 in 1.0 mi NNE 10.4 mph - N/A   Overcast
1:55 PM 32.0 °F 22.5 °F 31.1 °F 96% 29.92 in 1.8 mi NNE 12.7 mph - N/A   Overcast
2:15 PM 32.0 °F 22.5 °F 31.1 °F 96% 29.92 in 2.5 mi NNE 12.7 mph - N/A   Overcast
2:35 PM 32.0 °F 22.1 °F 31.3 °F 97% 29.92 in 2.5 mi NNE 13.8 mph 17.3 mph N/A   Overcast
2:55 PM 32.4 °F 23.0 °F 31.5 °F 96% 29.91 in 4.0 mi North 12.7 mph - N/A   Overcast
3:55 PM 32.9 °F 23.7 °F 31.5 °F 94% 29.89 in 5.0 mi North 12.7 mph - N/A   Overcast
4:15 PM 33.1 °F 23.4 °F 31.5 °F 94% 29.92 in 5.0 mi North 13.8 mph 17.3 mph N/A   Overcast
4:35 PM 32.9 °F 23.7 °F 31.1 °F 93% 29.92 in 7.0 mi North 12.7 mph - N/A   Overcast
4:55 PM 33.1 °F 23.0 °F 31.3 °F 93% 29.91 in 4.0 mi North 15.0 mph - N/A   Overcast
5:15 PM 33.1 °F 23.4 °F 31.6 °F 94% 29.92 in 2.0 mi North 13.8 mph - N/A   Light Drizzle
5:35 PM 32.9 °F 22.8 °F 31.1 °F 93% 29.92 in 2.5 mi North 15.0 mph 21.9 mph N/A Rain Light Rain
5:55 PM 32.9 °F 22.4 °F 31.3 °F 94% 29.92 in 1.8 mi North 16.1 mph 23.0 mph N/A   Drizzle
6:15 PM 32.5 °F 22.7 °F 31.1 °F 94% 29.93 in 1.8 mi North 13.8 mph 24.2 mph N/A Rain Light Rain
6:35 PM 32.5 °F 22.7 °F 31.1 °F 94% 29.92 in 1.5 mi North 13.8 mph - N/A   Light Drizzle
6:55 PM 32.2 °F 21.1 °F 30.7 °F 94% 29.94 in 1.5 mi North 17.3 mph 24.2 mph N/A Snow Light Snow
7:15 PM 32.0 °F 21.6 °F 30.0 °F 92% 29.94 in 1.2 mi North 15.0 mph 23.0 mph N/A Snow Light Snow
7:35 PM 31.3 °F 20.3 °F 29.3 °F 92% 29.96 in 0.8 mi North 16.1 mph 23.0 mph N/A Snow Light Snow
7:55 PM 30.6 °F 19.0 °F 28.4 °F 92% 29.96 in 0.5 mi North 17.3 mph 27.6 mph N/A Snow Snow
8:15 PM 29.8 °F 17.7 °F 27.7 °F 92% 29.98 in 0.5 mi North 18.4 mph 24.2 mph N/A Snow Snow
8:35 PM 29.7 °F 19.1 °F 27.5 °F 92% 30.00 in 0.8 mi North 13.8 mph 23.0 mph N/A Snow Light Snow
8:55 PM 29.3 °F 18.6 °F 27.3 °F 92% 29.99 in 1.8 mi North 13.8 mph 21.9 mph N/A Snow Light Snow
9:15 PM 28.8 °F 17.0 °F 26.6 °F 92% 30.01 in 1.2 mi North 16.1 mph 28.8 mph N/A Snow Light Snow
9:35 PM 28.8 °F 15.5 °F 26.6 °F 92% 30.00 in 1.8 mi North 20.7 mph 26.5 mph N/A Snow Light Snow
9:55 PM 28.4 °F 16.6 °F 26.4 °F 92% 30.01 in 2.5 mi North 16.1 mph 20.7 mph N/A Snow Light Snow
10:15 PM 28.2 °F 14.8 °F 25.9 °F 91% 30.01 in 1.8 mi North 20.7 mph 26.5 mph N/A Snow Light Snow
10:35 PM 27.7 °F 14.8 °F 25.3 °F 91% 30.01 in 2.0 mi North 18.4 mph 28.8 mph N/A Snow Light Snow
10:55 PM 28.0 °F 15.7 °F 25.3 °F 90% 30.00 in 2.5 mi North 17.3 mph 27.6 mph N/A Snow Light Snow
11:35 PM 27.7 °F 14.5 °F 25.2 °F 90% 29.98 in 1.8 mi North 19.6 mph 26.5 mph N/A Snow Light Snow
11:55 PM 27.5 °F 15.4 °F 24.8 °F 90% 29.98 in 2.0 mi NNW 16.1 mph 25.3 mph N/A Snow Light Snow